Location: Biharia
(46.4333°N, 22.8000°E)
Time: 16:28:37
(UTC+00:00)

COSMOS 2251 DEB - Pass Details

Date: 18 August 2022
Orbit: 557 x 890 km, 74.0° (Epoch: 01 October)

Event Time Altitude Azimuth Distance (km) Brightness Sun altitude
Exits shadow 01:42:40 33° 218° (SW) 992 ? -16.8°
Maximum altitude 01:44:27 70° 293° (WNW) 619 ? -16.6°
Drops below altitude 10° 01:48:33 10° 18° (NNE) 1,862 ? -16.0°
Sets 01:50:43 0° 20° (NNE) 2,754 ? -15.7°
